Year,Month,Day,Hour,Minute,Value (Times are PST for temperature in C)
2005,09,20,00,00,12.70
2005,09,20,00,01,12.70
2005,09,20,00,02,12.70
2005,09,20,00,03,12.60
2005,09,20,00,04,12.60
2005,09,20,00,05,12.50
2005,09,20,00,06,12.50
2005,09,20,00,07,12.40
2005,09,20,00,08,12.40
2005,09,20,00,09,12.40
2005,09,20,00,10,12.30
2005,09,20,00,11,12.30
2005,09,20,00,12,12.30
2005,09,20,00,13,12.30
2005,09,20,00,14,12.30
2005,09,20,00,15,12.30
2005,09,20,00,16,12.30
2005,09,20,00,17,12.30
2005,09,20,00,18,12.30
2005,09,20,00,19,12.30
2005,09,20,00,20,12.20
2005,09,20,00,21,12.20
2005,09,20,00,22,12.10
2005,09,20,00,23,12.10
2005,09,20,00,24,12.00
2005,09,20,00,25,12.00
2005,09,20,00,26,12.00
2005,09,20,00,27,11.90
2005,09,20,00,28,11.80
2005,09,20,00,29,11.80
2005,09,20,00,30,11.80
2005,09,20,00,31,11.80
2005,09,20,00,32,11.80
2005,09,20,00,33,11.80
2005,09,20,00,34,11.80
2005,09,20,00,35,11.80
2005,09,20,00,36,11.80
2005,09,20,00,37,11.80
2005,09,20,00,38,11.80
2005,09,20,00,39,11.90
2005,09,20,00,40,11.90
2005,09,20,00,41,11.90
2005,09,20,00,42,11.90
2005,09,20,00,43,11.90
2005,09,20,00,44,11.90
2005,09,20,00,45,11.90
2005,09,20,00,46,12.00
2005,09,20,00,47,12.00
2005,09,20,00,48,12.00
2005,09,20,00,49,12.00
2005,09,20,00,50,12.00
2005,09,20,00,51,12.00
2005,09,20,00,52,12.00
2005,09,20,00,53,12.00
2005,09,20,00,54,12.00
2005,09,20,00,55,11.90
2005,09,20,00,56,11.90
2005,09,20,00,57,11.90
2005,09,20,00,58,11.90
2005,09,20,00,59,11.90
2005,09,20,01,00,11.90
2005,09,20,01,01,11.90
2005,09,20,01,02,12.00
2005,09,20,01,03,12.00
2005,09,20,01,04,12.00
2005,09,20,01,05,12.00
2005,09,20,01,06,12.00
2005,09,20,01,07,12.00
2005,09,20,01,08,11.90
2005,09,20,01,09,11.90
2005,09,20,01,10,11.90
2005,09,20,01,11,11.90
2005,09,20,01,12,11.90
2005,09,20,01,13,11.90
2005,09,20,01,14,11.80
2005,09,20,01,15,11.80
2005,09,20,01,16,11.80
2005,09,20,01,17,11.80
2005,09,20,01,18,11.80
2005,09,20,01,19,11.80
2005,09,20,01,20,11.80
2005,09,20,01,21,11.80
2005,09,20,01,22,11.80
2005,09,20,01,23,11.80
2005,09,20,01,24,11.80
2005,09,20,01,25,11.80
2005,09,20,01,26,11.80
2005,09,20,01,27,11.80
2005,09,20,01,28,11.80
2005,09,20,01,29,11.80
2005,09,20,01,30,11.80
2005,09,20,01,31,11.80
2005,09,20,01,32,11.80
2005,09,20,01,33,11.80
2005,09,20,01,34,11.80
2005,09,20,01,35,11.80
2005,09,20,01,36,11.80
2005,09,20,01,37,11.80
2005,09,20,01,38,11.80
2005,09,20,01,39,11.80
2005,09,20,01,40,11.80
2005,09,20,01,41,11.80
2005,09,20,01,42,11.80
2005,09,20,01,43,11.80
2005,09,20,01,44,11.80
2005,09,20,01,45,11.80
2005,09,20,01,46,11.80
2005,09,20,01,47,11.80
2005,09,20,01,48,11.80
2005,09,20,01,49,11.80
2005,09,20,01,50,11.80
2005,09,20,01,51,11.80
2005,09,20,01,52,11.80
2005,09,20,01,53,11.80
2005,09,20,01,54,11.80
2005,09,20,01,55,11.80
2005,09,20,01,56,11.80
2005,09,20,01,57,11.80
2005,09,20,01,58,11.70
2005,09,20,01,59,11.70
2005,09,20,02,00,11.70
2005,09,20,02,01,11.60
2005,09,20,02,02,11.60
2005,09,20,02,03,11.60
2005,09,20,02,04,11.60
2005,09,20,02,05,11.60
2005,09,20,02,06,11.60
2005,09,20,02,07,11.60
2005,09,20,02,08,11.60
2005,09,20,02,09,11.60
2005,09,20,02,10,11.60
2005,09,20,02,11,11.60
2005,09,20,02,12,11.60
2005,09,20,02,13,11.60
2005,09,20,02,14,11.60
2005,09,20,02,15,11.60
2005,09,20,02,16,11.60
2005,09,20,02,17,11.60
2005,09,20,02,18,11.50
2005,09,20,02,19,11.40
2005,09,20,02,20,11.40
2005,09,20,02,21,11.40
2005,09,20,02,22,11.40
2005,09,20,02,23,11.40
2005,09,20,02,24,11.30
2005,09,20,02,25,11.30
2005,09,20,02,26,11.30
2005,09,20,02,27,11.20
2005,09,20,02,28,11.20
2005,09,20,02,29,11.10
2005,09,20,02,30,11.10
2005,09,20,02,31,11.10
2005,09,20,02,32,11.10
2005,09,20,02,33,11.10
2005,09,20,02,34,11.10
2005,09,20,02,35,11.10
2005,09,20,02,36,11.00
2005,09,20,02,37,10.90
2005,09,20,02,38,10.90
2005,09,20,02,39,10.90
2005,09,20,02,40,10.90
2005,09,20,02,41,10.90
2005,09,20,02,42,10.90
2005,09,20,02,43,10.90
2005,09,20,02,44,10.90
2005,09,20,02,45,10.90
2005,09,20,02,46,10.90
2005,09,20,02,47,10.90
2005,09,20,02,48,10.90
2005,09,20,02,49,10.90
2005,09,20,02,50,10.90
2005,09,20,02,51,10.90
2005,09,20,02,52,10.90
2005,09,20,02,53,10.90
2005,09,20,02,54,10.90
2005,09,20,02,55,10.90
2005,09,20,02,56,10.90
2005,09,20,02,57,10.90
2005,09,20,02,58,10.90
2005,09,20,02,59,10.90
2005,09,20,03,00,10.90
2005,09,20,03,01,10.90
2005,09,20,03,02,10.80
2005,09,20,03,03,10.80
2005,09,20,03,04,10.70
2005,09,20,03,05,10.70
2005,09,20,03,06,10.70
2005,09,20,03,07,10.60
2005,09,20,03,08,10.60
2005,09,20,03,09,10.60
2005,09,20,03,10,10.60
2005,09,20,03,11,10.60
2005,09,20,03,12,10.50
2005,09,20,03,13,10.40
2005,09,20,03,14,10.40
2005,09,20,03,15,10.40
2005,09,20,03,16,10.40
2005,09,20,03,17,10.40
2005,09,20,03,18,10.40
2005,09,20,03,19,10.30
2005,09,20,03,20,10.30
2005,09,20,03,21,10.30
2005,09,20,03,22,10.20
2005,09,20,03,23,10.20
2005,09,20,03,24,10.20
2005,09,20,03,25,10.10
2005,09,20,03,26,10.10
2005,09,20,03,27,10.10
2005,09,20,03,28,10.00
2005,09,20,03,29,9.90
2005,09,20,03,30,9.90
2005,09,20,03,31,9.90
2005,09,20,03,32,9.90
2005,09,20,03,33,9.80
2005,09,20,03,34,9.80
2005,09,20,03,35,9.80
2005,09,20,03,36,9.80
2005,09,20,03,37,9.70
2005,09,20,03,38,9.70
2005,09,20,03,39,9.70
2005,09,20,03,40,9.70
2005,09,20,03,41,9.70
2005,09,20,03,42,9.70
2005,09,20,03,43,9.70
2005,09,20,03,44,9.70
2005,09,20,03,45,9.70
2005,09,20,03,46,9.70
2005,09,20,03,47,9.70
2005,09,20,03,48,9.70
2005,09,20,03,49,9.70
2005,09,20,03,50,9.70
2005,09,20,03,51,9.70
2005,09,20,03,52,9.70
2005,09,20,03,53,9.70
2005,09,20,03,54,9.70
2005,09,20,03,55,9.70
2005,09,20,03,56,9.70
2005,09,20,03,57,9.70
2005,09,20,03,58,9.70
2005,09,20,03,59,9.70
2005,09,20,04,00,9.70
2005,09,20,04,01,9.70
2005,09,20,04,02,9.70
2005,09,20,04,03,9.70
2005,09,20,04,04,9.70
2005,09,20,04,05,9.70
2005,09,20,04,06,9.80
2005,09,20,04,07,9.80
2005,09,20,04,08,9.80
2005,09,20,04,09,9.80
2005,09,20,04,10,9.80
2005,09,20,04,11,9.80
2005,09,20,04,12,9.80
2005,09,20,04,13,9.80
2005,09,20,04,14,9.70
2005,09,20,04,15,9.70
2005,09,20,04,16,9.70
2005,09,20,04,17,9.70
2005,09,20,04,18,9.70
2005,09,20,04,19,9.70
2005,09,20,04,20,9.60
2005,09,20,04,21,9.60
2005,09,20,04,22,9.60
2005,09,20,04,23,9.50
2005,09,20,04,24,9.50
2005,09,20,04,25,9.50
2005,09,20,04,26,9.50
2005,09,20,04,27,9.40
2005,09,20,04,28,9.40
2005,09,20,04,29,9.40
2005,09,20,04,30,9.40
2005,09,20,04,31,9.30
2005,09,20,04,32,9.30
2005,09,20,04,33,9.30
2005,09,20,04,34,9.20
2005,09,20,04,35,9.20
2005,09,20,04,36,9.20
2005,09,20,04,37,9.20
2005,09,20,04,38,9.20
2005,09,20,04,39,9.20
2005,09,20,04,40,9.20
2005,09,20,04,41,9.20
2005,09,20,04,42,9.10
2005,09,20,04,43,9.10
2005,09,20,04,44,9.10
2005,09,20,04,45,9.10
2005,09,20,04,46,9.00
2005,09,20,04,47,9.00
2005,09,20,04,48,9.00
2005,09,20,04,49,9.00
2005,09,20,04,50,8.90
2005,09,20,04,51,8.90
2005,09,20,04,52,8.90
2005,09,20,04,53,8.90
2005,09,20,04,54,8.90
2005,09,20,04,55,9.00
2005,09,20,04,56,9.00
2005,09,20,04,57,9.00
2005,09,20,04,58,8.90
2005,09,20,04,59,8.90
2005,09,20,05,00,8.90
2005,09,20,05,01,8.90
2005,09,20,05,02,8.90
2005,09,20,05,03,8.80
2005,09,20,05,04,8.80
2005,09,20,05,05,8.80
2005,09,20,05,06,8.80
2005,09,20,05,07,8.80
2005,09,20,05,08,8.80
2005,09,20,05,09,8.80
2005,09,20,05,10,8.80
2005,09,20,05,11,8.80
2005,09,20,05,12,8.80
2005,09,20,05,13,8.80
2005,09,20,05,14,8.80
2005,09,20,05,15,8.80
2005,09,20,05,16,8.90
2005,09,20,05,17,8.90
2005,09,20,05,18,8.90
2005,09,20,05,19,8.90
2005,09,20,05,20,8.90
2005,09,20,05,21,8.90
2005,09,20,05,22,8.90
2005,09,20,05,23,9.00
2005,09,20,05,24,9.00
2005,09,20,05,25,9.00
2005,09,20,05,26,9.00
2005,09,20,05,27,9.00
2005,09,20,05,28,9.00
2005,09,20,05,29,8.90
2005,09,20,05,30,8.90
2005,09,20,05,31,8.80
2005,09,20,05,32,8.80
2005,09,20,05,33,8.80
2005,09,20,05,34,8.70
2005,09,20,05,35,8.70
2005,09,20,05,36,8.70
2005,09,20,05,37,8.80
2005,09,20,05,38,8.80
2005,09,20,05,39,8.80
2005,09,20,05,40,8.80
2005,09,20,05,41,8.80
2005,09,20,05,42,8.80
2005,09,20,05,43,8.80
2005,09,20,05,44,8.70
2005,09,20,05,45,8.70
2005,09,20,05,46,8.70
2005,09,20,05,47,8.70
2005,09,20,05,48,8.70
2005,09,20,05,49,8.70
2005,09,20,05,50,8.70
2005,09,20,05,51,8.70
2005,09,20,05,52,8.70
2005,09,20,05,53,8.70
2005,09,20,05,54,8.70
2005,09,20,05,55,8.70
2005,09,20,05,56,8.70
2005,09,20,05,57,8.70
2005,09,20,05,58,8.70
2005,09,20,05,59,8.60
2005,09,20,06,00,8.60
2005,09,20,06,01,8.60
2005,09,20,06,02,8.60
2005,09,20,06,03,8.60
2005,09,20,06,04,8.60
2005,09,20,06,05,8.60
2005,09,20,06,06,8.60
2005,09,20,06,07,8.60
2005,09,20,06,08,8.60
2005,09,20,06,09,8.70
2005,09,20,06,10,8.70
2005,09,20,06,11,8.70
2005,09,20,06,12,8.70
2005,09,20,06,13,8.70
2005,09,20,06,14,8.70
2005,09,20,06,15,8.70
2005,09,20,06,16,8.70
2005,09,20,06,17,8.80
2005,09,20,06,18,8.80
2005,09,20,06,19,8.80
2005,09,20,06,20,8.80
2005,09,20,06,21,8.80
2005,09,20,06,22,8.80
2005,09,20,06,23,8.70
2005,09,20,06,24,8.70
2005,09,20,06,25,8.70
2005,09,20,06,26,8.70
2005,09,20,06,27,8.70
2005,09,20,06,28,8.70
2005,09,20,06,29,8.60
2005,09,20,06,30,8.60
2005,09,20,06,31,8.50
2005,09,20,06,32,8.50
2005,09,20,06,33,8.40
2005,09,20,06,34,8.40
2005,09,20,06,35,8.40
2005,09,20,06,36,8.30
2005,09,20,06,37,8.30
2005,09,20,06,38,8.30
2005,09,20,06,39,8.30
2005,09,20,06,40,8.20
2005,09,20,06,41,8.20
2005,09,20,06,42,8.20
2005,09,20,06,43,8.20
2005,09,20,06,44,8.20
2005,09,20,06,45,8.20
2005,09,20,06,46,8.20
2005,09,20,06,47,8.20
2005,09,20,06,48,8.20
2005,09,20,06,49,8.20
2005,09,20,06,50,8.20
2005,09,20,06,51,8.20
2005,09,20,06,52,8.20
2005,09,20,06,53,8.20
2005,09,20,06,54,8.10
2005,09,20,06,55,8.10
2005,09,20,06,56,8.10
2005,09,20,06,57,8.10
2005,09,20,06,58,8.00
2005,09,20,06,59,8.00
2005,09,20,07,00,8.00
2005,09,20,07,01,8.00
2005,09,20,07,02,7.90
2005,09,20,07,03,7.90
2005,09,20,07,04,7.90
2005,09,20,07,05,7.90
2005,09,20,07,06,7.90
2005,09,20,07,07,7.80
2005,09,20,07,08,7.80
2005,09,20,07,09,7.90
2005,09,20,07,10,7.90
2005,09,20,07,11,7.80
2005,09,20,07,12,7.80
2005,09,20,07,13,7.80
2005,09,20,07,14,7.80
2005,09,20,07,15,7.90
2005,09,20,07,16,7.90
2005,09,20,07,17,7.90
2005,09,20,07,18,7.90
2005,09,20,07,19,7.90
2005,09,20,07,20,8.00
2005,09,20,07,21,8.00
2005,09,20,07,22,8.00
2005,09,20,07,23,8.10
2005,09,20,07,24,8.10
2005,09,20,07,25,8.10
2005,09,20,07,26,8.20
2005,09,20,07,27,8.20
2005,09,20,07,28,8.20
2005,09,20,07,29,8.20
2005,09,20,07,30,8.20
2005,09,20,07,31,8.20
2005,09,20,07,32,8.20
2005,09,20,07,33,8.20
2005,09,20,07,34,8.20
2005,09,20,07,35,8.20
2005,09,20,07,36,8.20
2005,09,20,07,37,8.20
2005,09,20,07,38,8.20
2005,09,20,07,39,8.30
2005,09,20,07,40,8.30
2005,09,20,07,41,8.30
2005,09,20,07,42,8.30
2005,09,20,07,43,8.30
2005,09,20,07,44,8.30
2005,09,20,07,45,8.30
2005,09,20,07,46,8.30
2005,09,20,07,47,8.30
2005,09,20,07,48,8.30
2005,09,20,07,49,8.40
2005,09,20,07,50,8.40
2005,09,20,07,51,8.50
2005,09,20,07,52,8.50
2005,09,20,07,53,8.50
2005,09,20,07,54,8.60
2005,09,20,07,55,8.70
2005,09,20,07,56,8.70
2005,09,20,07,57,8.70
2005,09,20,07,58,8.80
2005,09,20,07,59,8.90
2005,09,20,08,00,8.90
2005,09,20,08,01,9.00
2005,09,20,08,02,9.10
2005,09,20,08,03,9.10
2005,09,20,08,04,9.20
2005,09,20,08,05,9.30
2005,09,20,08,06,9.40
2005,09,20,08,07,9.40
2005,09,20,08,08,9.50
2005,09,20,08,09,9.60
2005,09,20,08,10,9.70
2005,09,20,08,11,9.70
2005,09,20,08,12,9.70
2005,09,20,08,13,9.70
2005,09,20,08,14,9.80
2005,09,20,08,15,9.80
2005,09,20,08,16,9.90
2005,09,20,08,17,9.90
2005,09,20,08,18,10.00
2005,09,20,08,19,10.10
2005,09,20,08,20,10.10
2005,09,20,08,21,10.20
2005,09,20,08,22,10.30
2005,09,20,08,23,10.40
2005,09,20,08,24,10.40
2005,09,20,08,25,10.40
2005,09,20,08,26,10.50
2005,09,20,08,27,10.60
2005,09,20,08,28,10.70
2005,09,20,08,29,10.80
2005,09,20,08,30,10.90
2005,09,20,08,31,11.00
2005,09,20,08,32,11.10
2005,09,20,08,33,11.20
2005,09,20,08,34,11.30
2005,09,20,08,35,11.40
2005,09,20,08,36,11.50
2005,09,20,08,37,11.60
2005,09,20,08,38,11.70
2005,09,20,08,39,11.80
2005,09,20,08,40,11.90
2005,09,20,08,41,12.10
2005,09,20,08,42,12.20
2005,09,20,08,43,12.30
2005,09,20,08,44,12.50
2005,09,20,08,45,12.70
2005,09,20,08,46,12.80
2005,09,20,08,47,12.90
2005,09,20,08,48,13.00
2005,09,20,08,49,13.10
2005,09,20,08,50,13.10
2005,09,20,08,51,13.10
2005,09,20,08,52,13.20
2005,09,20,08,53,13.20
2005,09,20,08,54,13.20
2005,09,20,08,55,13.30
2005,09,20,08,56,13.30
2005,09,20,08,57,13.40
2005,09,20,08,58,13.50
2005,09,20,08,59,13.50
2005,09,20,09,00,13.60
2005,09,20,09,01,13.60
2005,09,20,09,02,13.60
2005,09,20,09,03,13.50
2005,09,20,09,04,13.50
2005,09,20,09,05,13.60
2005,09,20,09,06,13.60
2005,09,20,09,07,13.60
2005,09,20,09,08,13.60
2005,09,20,09,09,13.60
2005,09,20,09,10,13.60
2005,09,20,09,11,13.60
2005,09,20,09,12,13.50
2005,09,20,09,13,13.50
2005,09,20,09,14,13.40
2005,09,20,09,15,13.30
2005,09,20,09,16,13.30
2005,09,20,09,17,13.20
2005,09,20,09,18,13.20
2005,09,20,09,19,13.20
2005,09,20,09,20,13.20
2005,09,20,09,21,13.30
2005,09,20,09,22,13.30
2005,09,20,09,23,13.30
2005,09,20,09,24,13.40
2005,09,20,09,25,13.50
2005,09,20,09,26,13.60
2005,09,20,09,27,13.60
2005,09,20,09,28,13.60
2005,09,20,09,29,13.60
2005,09,20,09,30,13.60
2005,09,20,09,31,13.70
2005,09,20,09,32,13.70
2005,09,20,09,33,13.80
2005,09,20,09,34,13.90
2005,09,20,09,35,14.00
2005,09,20,09,36,14.10
2005,09,20,09,37,14.20
2005,09,20,09,38,14.20
2005,09,20,09,39,14.20
2005,09,20,09,40,14.20
2005,09,20,09,41,14.10
2005,09,20,09,42,13.90
2005,09,20,09,43,13.80
2005,09,20,09,44,13.70
2005,09,20,09,45,13.70
2005,09,20,09,46,13.70
2005,09,20,09,47,13.60
2005,09,20,09,48,13.60
2005,09,20,09,49,13.60
2005,09,20,09,50,13.60
2005,09,20,09,51,13.50
2005,09,20,09,52,13.40
2005,09,20,09,53,13.40
2005,09,20,09,54,13.40
2005,09,20,09,55,13.30
2005,09,20,09,56,13.30
2005,09,20,09,57,13.30
2005,09,20,09,58,13.40
2005,09,20,09,59,13.40
2005,09,20,10,00,13.50
2005,09,20,10,01,13.60
2005,09,20,10,02,13.60
2005,09,20,10,03,13.70
2005,09,20,10,04,13.70
2005,09,20,10,05,13.70
2005,09,20,10,06,13.70
2005,09,20,10,07,13.70
2005,09,20,10,08,13.70
2005,09,20,10,09,13.70
2005,09,20,10,10,13.80
2005,09,20,10,11,13.90
2005,09,20,10,12,13.90
2005,09,20,10,13,13.90
2005,09,20,10,14,13.90
2005,09,20,10,15,13.80
2005,09,20,10,16,13.80
2005,09,20,10,17,13.80
2005,09,20,10,18,13.70
2005,09,20,10,19,13.70
2005,09,20,10,20,13.70
2005,09,20,10,21,13.70
2005,09,20,10,22,13.70
2005,09,20,10,23,13.70
2005,09,20,10,24,13.70
2005,09,20,10,25,13.70
2005,09,20,10,26,13.70
2005,09,20,10,27,13.70
2005,09,20,10,28,13.70
2005,09,20,10,29,13.80
2005,09,20,10,30,13.90
2005,09,20,10,31,14.00
2005,09,20,10,32,14.10
2005,09,20,10,33,14.20
2005,09,20,10,34,14.30
2005,09,20,10,35,14.40
2005,09,20,10,36,14.40
2005,09,20,10,37,14.50
2005,09,20,10,38,14.50
2005,09,20,10,39,14.60
2005,09,20,10,40,14.60
2005,09,20,10,41,14.60
2005,09,20,10,42,14.70
2005,09,20,10,43,14.80
2005,09,20,10,44,14.80
2005,09,20,10,45,14.80
2005,09,20,10,46,14.80
2005,09,20,10,47,14.80
2005,09,20,10,48,14.90
2005,09,20,10,49,14.90
2005,09,20,10,50,14.90
2005,09,20,10,51,14.90
2005,09,20,10,52,14.90
2005,09,20,10,53,14.80
2005,09,20,10,54,14.80
2005,09,20,10,55,14.70
2005,09,20,10,56,14.70
2005,09,20,10,57,14.70
2005,09,20,10,58,14.60
2005,09,20,10,59,14.60
2005,09,20,11,00,14.50
2005,09,20,11,01,14.60
2005,09,20,11,02,14.60
2005,09,20,11,03,14.50
2005,09,20,11,04,14.50
2005,09,20,11,05,14.60
2005,09,20,11,06,14.60
2005,09,20,11,07,14.70
2005,09,20,11,08,14.70
2005,09,20,11,09,14.80
2005,09,20,11,10,14.80
2005,09,20,11,11,14.90
2005,09,20,11,12,14.90
2005,09,20,11,13,14.90
2005,09,20,11,14,15.00
2005,09,20,11,15,15.00
2005,09,20,11,16,14.90
2005,09,20,11,17,14.90
2005,09,20,11,18,14.90
2005,09,20,11,19,14.90
2005,09,20,11,20,14.80
2005,09,20,11,21,14.80
2005,09,20,11,22,14.70
2005,09,20,11,23,14.70
2005,09,20,11,24,14.60
2005,09,20,11,25,14.60
2005,09,20,11,26,14.70
2005,09,20,11,27,14.80
2005,09,20,11,28,14.80
2005,09,20,11,29,14.80
2005,09,20,11,30,14.80
2005,09,20,11,31,14.80
2005,09,20,11,32,14.80
2005,09,20,11,33,14.90
2005,09,20,11,34,14.90
2005,09,20,11,35,15.00
2005,09,20,11,36,15.10
2005,09,20,11,37,15.10
2005,09,20,11,38,15.10
2005,09,20,11,39,15.10
2005,09,20,11,40,15.20
2005,09,20,11,41,15.30
2005,09,20,11,42,15.30
2005,09,20,11,43,15.30
2005,09,20,11,44,15.30
2005,09,20,11,45,15.30
2005,09,20,11,46,15.30
2005,09,20,11,47,15.30
2005,09,20,11,48,15.30
2005,09,20,11,49,15.40
2005,09,20,11,50,15.50
2005,09,20,11,51,15.60
2005,09,20,11,52,15.70
2005,09,20,11,53,15.70
2005,09,20,11,54,15.70
2005,09,20,11,55,15.60
2005,09,20,11,56,15.60
2005,09,20,11,57,15.50
2005,09,20,11,58,15.50
2005,09,20,11,59,15.40
2005,09,20,12,00,15.40
2005,09,20,12,01,15.40
2005,09,20,12,02,15.50
2005,09,20,12,03,15.50
2005,09,20,12,04,15.60
2005,09,20,12,05,15.60
2005,09,20,12,06,15.70
2005,09,20,12,07,15.70
2005,09,20,12,08,15.70
2005,09,20,12,09,15.80
2005,09,20,12,10,15.90
2005,09,20,12,11,16.00
2005,09,20,12,12,16.20
2005,09,20,12,13,16.20
2005,09,20,12,14,16.20
2005,09,20,12,15,16.30
2005,09,20,12,16,16.30
2005,09,20,12,17,16.30
2005,09,20,12,18,16.30
2005,09,20,12,19,16.30
2005,09,20,12,20,16.20
2005,09,20,12,21,16.10
2005,09,20,12,22,16.00
2005,09,20,12,23,15.80
2005,09,20,12,24,15.60
2005,09,20,12,25,15.60
2005,09,20,12,26,15.60
2005,09,20,12,27,15.60
2005,09,20,12,28,15.60
2005,09,20,12,29,15.50
2005,09,20,12,30,15.50
2005,09,20,12,31,15.40
2005,09,20,12,32,15.40
2005,09,20,12,33,15.30
2005,09,20,12,34,15.30
2005,09,20,12,35,15.30
2005,09,20,12,36,15.30
2005,09,20,12,37,15.30
2005,09,20,12,38,15.30
2005,09,20,12,39,15.40
2005,09,20,12,40,15.50
2005,09,20,12,41,15.50
2005,09,20,12,42,15.60
2005,09,20,12,43,15.70
2005,09,20,12,44,15.70
2005,09,20,12,45,15.60
2005,09,20,12,46,15.60
2005,09,20,12,47,15.50
2005,09,20,12,48,15.40
2005,09,20,12,49,15.40
2005,09,20,12,50,15.30
2005,09,20,12,51,15.30
2005,09,20,12,52,15.30
2005,09,20,12,53,15.10
2005,09,20,12,54,15.00
2005,09,20,12,55,14.90
2005,09,20,12,56,14.90
2005,09,20,12,57,14.80
2005,09,20,12,58,14.80
2005,09,20,12,59,14.90
2005,09,20,13,00,14.90
2005,09,20,13,01,14.90
2005,09,20,13,02,14.90
2005,09,20,13,03,15.00
2005,09,20,13,04,15.00
2005,09,20,13,05,15.10
2005,09,20,13,06,15.20
2005,09,20,13,07,15.20
2005,09,20,13,08,15.30
2005,09,20,13,09,15.40
2005,09,20,13,10,15.40
2005,09,20,13,11,15.50
2005,09,20,13,12,15.50
2005,09,20,13,13,15.50
2005,09,20,13,14,15.50
2005,09,20,13,15,15.50
2005,09,20,13,16,15.50
2005,09,20,13,17,15.30
2005,09,20,13,18,15.30
2005,09,20,13,19,15.30
2005,09,20,13,20,15.30
2005,09,20,13,21,15.20
2005,09,20,13,22,15.20
2005,09,20,13,23,15.20
2005,09,20,13,24,15.30
2005,09,20,13,25,15.30
2005,09,20,13,26,15.30
2005,09,20,13,27,15.30
2005,09,20,13,28,15.40
2005,09,20,13,29,15.50
2005,09,20,13,30,15.50
2005,09,20,13,31,15.50
2005,09,20,13,32,15.50
2005,09,20,13,33,15.50
2005,09,20,13,34,15.40
2005,09,20,13,35,15.50
2005,09,20,13,36,15.50
2005,09,20,13,37,15.40
2005,09,20,13,38,15.40
2005,09,20,13,39,15.40
2005,09,20,13,40,15.50
2005,09,20,13,41,15.60
2005,09,20,13,42,15.70
2005,09,20,13,43,15.80
2005,09,20,13,44,15.80
2005,09,20,13,45,15.80
2005,09,20,13,46,15.90
2005,09,20,13,47,16.00
2005,09,20,13,48,16.10
2005,09,20,13,49,16.10
2005,09,20,13,50,16.20
2005,09,20,13,51,16.30
2005,09,20,13,52,16.30
2005,09,20,13,53,16.40
2005,09,20,13,54,16.40
2005,09,20,13,55,16.50
2005,09,20,13,56,16.60
2005,09,20,13,57,16.70
2005,09,20,13,58,16.70
2005,09,20,13,59,16.70
2005,09,20,14,00,16.70
2005,09,20,14,01,16.60
2005,09,20,14,02,16.50
2005,09,20,14,03,16.40
2005,09,20,14,04,16.40
2005,09,20,14,05,16.40
2005,09,20,14,06,16.40
2005,09,20,14,07,16.40
2005,09,20,14,08,16.40
2005,09,20,14,09,16.40
2005,09,20,14,10,16.40
2005,09,20,14,11,16.30
2005,09,20,14,12,16.40
2005,09,20,14,13,16.30
2005,09,20,14,14,16.20
2005,09,20,14,15,16.10
2005,09,20,14,16,16.10
2005,09,20,14,17,16.10
2005,09,20,14,18,16.10
2005,09,20,14,19,16.10
2005,09,20,14,20,16.00
2005,09,20,14,21,16.00
2005,09,20,14,22,16.10
2005,09,20,14,23,16.20
2005,09,20,14,24,16.20
2005,09,20,14,25,16.20
2005,09,20,14,26,16.20
2005,09,20,14,27,16.30
2005,09,20,14,28,16.30
2005,09,20,14,29,16.30
2005,09,20,14,30,16.40
2005,09,20,14,31,16.40
2005,09,20,14,32,16.30
2005,09,20,14,33,16.30
2005,09,20,14,34,16.30
2005,09,20,14,35,16.40
2005,09,20,14,36,16.30
2005,09,20,14,37,16.30
2005,09,20,14,38,16.30
2005,09,20,14,39,16.30
2005,09,20,14,40,16.30
2005,09,20,14,41,16.40
2005,09,20,14,42,16.40
2005,09,20,14,43,16.40
2005,09,20,14,44,16.40
2005,09,20,14,45,16.50
2005,09,20,14,46,16.60
2005,09,20,14,47,16.50
2005,09,20,14,48,16.40
2005,09,20,14,49,16.30
2005,09,20,14,50,16.20
2005,09,20,14,51,16.20
2005,09,20,14,52,16.10
2005,09,20,14,53,16.20
2005,09,20,14,54,16.10
2005,09,20,14,55,16.10
2005,09,20,14,56,16.10
2005,09,20,14,57,16.20
2005,09,20,14,58,16.20
2005,09,20,14,59,16.20
2005,09,20,15,00,16.30
2005,09,20,15,01,16.30
2005,09,20,15,02,16.20
2005,09,20,15,03,16.20
2005,09,20,15,04,16.20
2005,09,20,15,05,16.10
2005,09,20,15,06,16.00
2005,09,20,15,07,15.90
2005,09,20,15,08,15.90
2005,09,20,15,09,15.90
2005,09,20,15,10,15.90
2005,09,20,15,11,16.00
2005,09,20,15,12,16.10
2005,09,20,15,13,16.10
2005,09,20,15,14,16.10
2005,09,20,15,15,16.10
2005,09,20,15,16,16.10
2005,09,20,15,17,16.20
2005,09,20,15,18,16.30
2005,09,20,15,19,16.30
2005,09,20,15,20,16.40
2005,09,20,15,21,16.40
2005,09,20,15,22,16.40
2005,09,20,15,23,16.40
2005,09,20,15,24,16.40
2005,09,20,15,25,16.40
2005,09,20,15,26,16.40
2005,09,20,15,27,16.40
2005,09,20,15,28,16.40
2005,09,20,15,29,16.40
2005,09,20,15,30,16.30
2005,09,20,15,31,16.20
2005,09,20,15,32,16.30
2005,09,20,15,33,16.30
2005,09,20,15,34,16.20
2005,09,20,15,35,16.20
2005,09,20,15,36,16.00
2005,09,20,15,37,15.90
2005,09,20,15,38,15.80
2005,09,20,15,39,15.90
2005,09,20,15,40,15.90
2005,09,20,15,41,16.00
2005,09,20,15,42,16.10
2005,09,20,15,43,16.10
2005,09,20,15,44,16.10
2005,09,20,15,45,16.10
2005,09,20,15,46,16.10
2005,09,20,15,47,16.10
2005,09,20,15,48,16.10
2005,09,20,15,49,16.20
2005,09,20,15,50,16.20
2005,09,20,15,51,16.20
2005,09,20,15,52,16.20
2005,09,20,15,53,16.20
2005,09,20,15,54,16.30
2005,09,20,15,55,16.30
2005,09,20,15,56,16.30
2005,09,20,15,57,16.30
2005,09,20,15,58,16.40
2005,09,20,15,59,16.40
2005,09,20,16,00,16.50
2005,09,20,16,01,16.50
2005,09,20,16,02,16.40
2005,09,20,16,03,16.40
2005,09,20,16,04,16.40
2005,09,20,16,05,16.40
2005,09,20,16,06,16.40
2005,09,20,16,07,16.40
2005,09,20,16,08,16.40
2005,09,20,16,09,16.40
2005,09,20,16,10,16.40
2005,09,20,16,11,16.40
2005,09,20,16,12,16.60
2005,09,20,16,13,16.50
2005,09,20,16,14,16.40
2005,09,20,16,15,16.40
2005,09,20,16,16,16.50
2005,09,20,16,17,16.60
2005,09,20,16,18,16.60
2005,09,20,16,19,16.40
2005,09,20,16,20,16.30
2005,09,20,16,21,16.30
2005,09,20,16,22,16.20
2005,09,20,16,23,16.20
2005,09,20,16,24,16.20
2005,09,20,16,25,16.30
2005,09,20,16,26,16.30
2005,09,20,16,27,16.40
2005,09,20,16,28,16.30
2005,09,20,16,29,16.20
2005,09,20,16,30,16.10
2005,09,20,16,31,16.10
2005,09,20,16,32,16.00
2005,09,20,16,33,15.90
2005,09,20,16,34,16.10
2005,09,20,16,35,16.10
2005,09,20,16,36,16.10
2005,09,20,16,37,16.10
2005,09,20,16,38,16.10
2005,09,20,16,39,16.10
2005,09,20,16,40,16.20
2005,09,20,16,41,16.20
2005,09,20,16,42,16.30
2005,09,20,16,43,16.30
2005,09,20,16,44,16.50
2005,09,20,16,45,16.60
2005,09,20,16,46,16.70
2005,09,20,16,47,16.70
2005,09,20,16,48,16.70
2005,09,20,16,49,16.80
2005,09,20,16,50,16.70
2005,09,20,16,51,16.60
2005,09,20,16,52,16.30
2005,09,20,16,53,16.10
2005,09,20,16,54,16.00
2005,09,20,16,55,15.90
2005,09,20,16,56,15.80
2005,09,20,16,57,15.80
2005,09,20,16,58,15.80
2005,09,20,16,59,15.80
2005,09,20,17,00,15.90
2005,09,20,17,01,15.90
2005,09,20,17,02,16.10
2005,09,20,17,03,16.10
2005,09,20,17,04,15.90
2005,09,20,17,05,16.00
2005,09,20,17,06,16.10
2005,09,20,17,07,16.00
2005,09,20,17,08,15.90
2005,09,20,17,09,16.10
2005,09,20,17,10,16.10
2005,09,20,17,11,16.10
2005,09,20,17,12,16.10
2005,09,20,17,13,16.10
2005,09,20,17,14,16.10
2005,09,20,17,15,16.10
2005,09,20,17,16,16.20
2005,09,20,17,17,16.20
2005,09,20,17,18,16.20
2005,09,20,17,19,16.20
2005,09,20,17,20,16.30
2005,09,20,17,21,16.30
2005,09,20,17,22,16.30
2005,09,20,17,23,16.30
2005,09,20,17,24,16.30
2005,09,20,17,25,16.20
2005,09,20,17,26,16.20
2005,09,20,17,27,16.20
2005,09,20,17,28,16.20
2005,09,20,17,29,16.20
2005,09,20,17,30,16.20
2005,09,20,17,31,16.20
2005,09,20,17,32,16.20